timestamp,wind_dir_avg,wind_spd_avg,wind_spd_max_dir,wind_spd_gust,battery_voltage,lat,long
2023-08-31 00:04:01+00:00,230.0,9.54,241.0,14.74,12.41,47.59359,-54.27349
2023-08-31 00:14:01+00:00,241.0,14.63,238.0,17.36,12.41,47.59359,-54.27349
2023-08-31 00:24:01+00:00,232.0,12.55,237.0,16.85,12.41,47.59359,-54.27349
2023-08-31 00:34:01+00:00,221.0,12.16,234.0,16.5,12.41,47.59359,-54.27349
2023-08-31 00:44:01+00:00,228.0,13.58,225.0,16.89,12.41,47.59359,-54.27349
2023-08-31 00:54:01+00:00,216.0,12.02,221.0,14.72,12.41,47.59359,-54.27349
2023-08-31 01:04:01+00:00,219.0,12.21,224.0,15.28,12.41,47.59359,-54.27349
2023-08-31 01:14:00+00:00,215.0,12.4,221.0,15.56,12.41,47.59359,-54.27349
2023-08-31 01:24:00+00:00,215.0,12.19,218.0,13.85,12.41,47.59359,-54.27349
2023-08-31 01:34:00+00:00,215.0,11.84,221.0,14.47,12.41,47.59359,-54.27349
2023-08-31 01:44:00+00:00,218.0,10.35,221.0,12.09,12.41,47.59359,-54.27349
2023-08-31 01:54:00+00:00,217.0,10.13,211.0,13.03,12.41,47.59359,-54.27349
2023-08-31 02:04:00+00:00,220.0,13.13,224.0,17.05,12.41,47.59359,-54.27349
2023-08-31 02:14:00+00:00,217.0,11.68,226.0,17.68,12.41,47.59359,-54.27349
2023-08-31 02:24:00+00:00,218.0,12.15,225.0,15.06,12.41,47.59359,-54.27349
2023-08-31 02:34:00+00:00,221.0,13.79,228.0,17.79,12.41,47.59359,-54.27349
2023-08-31 02:44:00+00:00,218.0,13.23,228.0,16.52,12.41,47.59359,-54.27349
2023-08-31 02:54:00+00:00,218.0,12.08,222.0,14.17,12.41,47.59359,-54.27349
2023-08-31 03:04:00+00:00,216.0,12.47,213.0,14.56,12.41,47.59359,-54.27349
2023-08-31 03:14:00+00:00,216.0,12.97,225.0,15.35,12.41,47.59359,-54.27349
2023-08-31 03:24:00+00:00,217.0,13.58,226.0,16.89,12.41,47.59359,-54.27349
2023-08-31 03:34:00+00:00,219.0,13.86,224.0,17.13,12.41,47.59359,-54.27349
2023-08-31 03:44:00+00:00,219.0,14.09,224.0,17.11,12.41,47.59359,-54.27349
2023-08-31 03:54:00+00:00,216.0,13.34,223.0,17.55,12.41,47.59359,-54.27349
2023-08-31 04:04:00+00:00,216.0,13.86,224.0,17.44,12.41,47.59359,-54.27349
2023-08-31 04:14:00+00:00,215.0,13.18,225.0,16.58,12.41,47.59359,-54.27349
2023-08-31 04:24:00+00:00,214.0,12.09,228.0,15.54,12.41,47.59359,-54.27349
2023-08-31 04:34:00+00:00,216.0,13.61,228.0,17.45,12.41,47.59359,-54.27349
2023-08-31 04:44:00+00:00,214.0,12.37,213.0,14.49,12.41,47.59359,-54.27349
2023-08-31 04:54:00+00:00,218.0,12.99,226.0,16.88,12.41,47.59359,-54.27349
2023-08-31 05:04:00+00:00,221.0,14.44,225.0,19.13,12.41,47.59359,-54.27349
2023-08-31 05:14:00+00:00,219.0,12.74,227.0,17.52,12.33,47.59359,-54.27349
2023-08-31 05:24:00+00:00,217.0,11.27,220.0,12.94,12.33,47.59359,-54.27349
2023-08-31 05:34:00+00:00,221.0,15.4,224.0,19.31,12.33,47.59359,-54.27349
2023-08-31 05:44:00+00:00,215.0,12.86,227.0,18.29,12.33,47.59359,-54.27349
2023-08-31 05:54:00+00:00,220.0,16.11,223.0,20.22,12.33,47.59359,-54.27349
2023-08-31 06:04:00+00:00,214.0,15.04,219.0,18.54,12.33,47.59359,-54.27349
2023-08-31 06:14:01+00:00,220.0,15.37,226.0,19.03,12.33,47.59359,-54.27349
2023-08-31 06:24:01+00:00,221.0,16.8,216.0,20.52,12.33,47.59359,-54.27349
2023-08-31 06:34:01+00:00,220.0,16.8,232.0,23.69,12.33,47.59359,-54.27349
2023-08-31 06:44:01+00:00,224.0,16.95,223.0,20.57,12.33,47.59359,-54.27349
2023-08-31 06:54:01+00:00,226.0,16.79,227.0,19.23,12.33,47.59359,-54.27349
2023-08-31 07:04:01+00:00,219.0,16.72,226.0,19.6,12.33,47.59359,-54.27349
2023-08-31 07:14:00+00:00,221.0,18.24,221.0,20.96,12.25,47.59359,-54.27349
2023-08-31 07:24:00+00:00,221.0,14.84,227.0,18.63,12.25,47.59359,-54.27349
2023-08-31 07:34:00+00:00,221.0,16.47,216.0,21.24,12.25,47.59359,-54.27349
2023-08-31 07:44:00+00:00,221.0,20.0,215.0,22.21,12.25,47.59359,-54.27349
2023-08-31 07:54:00+00:00,220.0,19.29,222.0,21.96,12.25,47.59359,-54.27349
2023-08-31 08:04:00+00:00,215.0,15.85,223.0,19.94,12.25,47.59359,-54.27349
2023-08-31 08:14:00+00:00,221.0,15.89,225.0,19.97,12.25,47.59359,-54.27349
2023-08-31 08:24:00+00:00,222.0,14.77,226.0,19.09,12.25,47.59359,-54.27349
2023-08-31 08:34:00+00:00,222.0,15.8,224.0,19.39,12.25,47.59359,-54.27349
2023-08-31 08:44:00+00:00,224.0,17.14,226.0,19.83,12.25,47.59359,-54.27349
2023-08-31 08:54:00+00:00,225.0,15.54,228.0,18.13,12.25,47.59359,-54.27349
2023-08-31 09:04:00+00:00,225.0,15.45,224.0,19.36,12.25,47.59359,-54.27349
2023-08-31 09:14:01+00:00,219.0,14.24,226.0,16.91,12.25,47.59359,-54.27349
2023-08-31 09:24:01+00:00,219.0,15.54,225.0,18.35,12.25,47.59359,-54.27349
2023-08-31 09:34:01+00:00,215.0,15.79,208.0,18.63,12.25,47.59359,-54.27349
2023-08-31 09:44:01+00:00,222.0,16.45,225.0,19.93,12.25,47.59359,-54.27349
2023-08-31 09:54:01+00:00,222.0,15.81,227.0,18.84,12.25,47.59359,-54.27349
2023-08-31 10:04:01+00:00,219.0,16.04,225.0,19.78,12.25,47.59359,-54.27349
2023-08-31 10:14:00+00:00,210.0,13.48,228.0,18.21,12.25,47.59359,-54.27349
2023-08-31 10:24:00+00:00,220.0,10.94,213.0,12.7,12.25,47.59359,-54.27349
2023-08-31 10:34:00+00:00,222.0,9.76,219.0,11.49,12.25,47.59359,-54.27349
2023-08-31 10:44:00+00:00,216.0,11.54,224.0,14.34,12.25,47.59359,-54.27349
2023-08-31 10:54:00+00:00,216.0,11.53,236.0,15.75,12.25,47.59359,-54.27349
2023-08-31 11:04:00+00:00,211.0,11.46,216.0,14.29,12.25,47.59359,-54.27349
2023-08-31 11:14:01+00:00,209.0,11.76,214.0,13.38,12.33,47.59359,-54.27349
2023-08-31 11:24:01+00:00,217.0,12.31,232.0,16.23,12.33,47.59359,-54.27349
2023-08-31 11:34:01+00:00,219.0,11.31,222.0,13.28,12.33,47.59359,-54.27349
2023-08-31 11:44:01+00:00,224.0,15.96,227.0,19.06,12.33,47.59359,-54.27349
2023-08-31 11:54:01+00:00,231.0,13.59,234.0,16.65,12.33,47.59359,-54.27349
2023-08-31 12:04:01+00:00,235.0,13.66,236.0,16.8,12.33,47.59359,-54.27349
2023-08-31 12:14:01+00:00,231.0,10.11,237.0,13.81,12.41,47.59359,-54.27349
2023-08-31 12:24:01+00:00,233.0,11.86,237.0,15.58,12.41,47.59359,-54.27349
2023-08-31 12:34:01+00:00,230.0,13.21,229.0,17.02,12.41,47.59359,-54.27349
2023-08-31 12:44:01+00:00,221.0,10.27,232.0,13.28,12.41,47.59359,-54.27349
2023-08-31 12:54:01+00:00,221.0,11.58,232.0,15.51,12.41,47.59359,-54.27349
2023-08-31 13:04:01+00:00,222.0,10.78,232.0,14.15,12.41,47.59359,-54.27349
2023-08-31 13:14:01+00:00,228.0,10.66,240.0,15.35,12.81,47.59359,-54.27349
2023-08-31 13:24:01+00:00,216.0,11.76,226.0,15.93,12.81,47.59359,-54.27349
2023-08-31 13:34:01+00:00,233.0,11.44,240.0,16.35,12.81,47.59359,-54.27349
2023-08-31 13:44:01+00:00,232.0,11.68,240.0,16.52,12.81,47.59359,-54.27349
2023-08-31 13:54:01+00:00,228.0,9.61,235.0,11.69,12.81,47.59359,-54.27349
2023-08-31 14:04:01+00:00,214.0,8.39,214.0,9.5,12.81,47.59359,-54.27349
2023-08-31 14:14:00+00:00,217.0,9.07,216.0,10.26,13.05,47.59359,-54.27349
2023-08-31 14:24:00+00:00,208.0,11.06,210.0,12.3,13.05,47.59359,-54.27349
2023-08-31 14:34:00+00:00,213.0,10.96,214.0,12.48,13.05,47.59359,-54.27349
2023-08-31 14:44:00+00:00,211.0,11.73,209.0,14.02,13.05,47.59359,-54.27349
2023-08-31 14:54:00+00:00,214.0,11.49,216.0,12.54,13.05,47.59359,-54.27349
2023-08-31 15:04:00+00:00,211.0,10.88,208.0,13.2,13.05,47.59359,-54.27349
2023-08-31 15:14:00+00:00,213.0,10.56,213.0,11.83,13.05,47.59359,-54.27349
2023-08-31 15:24:00+00:00,209.0,9.91,211.0,11.22,13.05,47.59359,-54.27349
2023-08-31 15:34:00+00:00,209.0,10.82,209.0,12.33,13.05,47.59359,-54.27349
2023-08-31 15:44:00+00:00,210.0,10.95,213.0,12.28,13.05,47.59359,-54.27349
2023-08-31 15:54:00+00:00,216.0,11.67,219.0,13.21,13.05,47.59359,-54.27349
2023-08-31 16:04:00+00:00,214.0,9.62,216.0,10.68,13.05,47.59359,-54.27349
2023-08-31 16:14:00+00:00,219.0,8.18,221.0,9.22,13.05,47.59359,-54.27349
2023-08-31 16:24:00+00:00,229.0,8.87,239.0,10.42,13.05,47.59359,-54.27349
2023-08-31 16:34:00+00:00,233.0,7.05,228.0,8.62,13.05,47.59359,-54.27349
2023-08-31 16:44:00+00:00,217.0,5.75,228.0,7.14,13.05,47.59359,-54.27349
2023-08-31 16:54:00+00:00,203.0,6.9,203.0,7.77,13.05,47.59359,-54.27349
2023-08-31 17:04:00+00:00,205.0,8.08,208.0,9.4,13.05,47.59359,-54.27349
2023-08-31 17:14:00+00:00,205.0,8.23,210.0,9.04,13.13,47.59359,-54.27349
2023-08-31 17:24:00+00:00,210.0,6.48,212.0,7.44,13.13,47.59359,-54.27349
2023-08-31 17:34:00+00:00,207.0,6.98,207.0,7.92,13.13,47.59359,-54.27349
2023-08-31 17:44:00+00:00,217.0,8.02,220.0,9.57,13.13,47.59359,-54.27349
2023-08-31 17:54:00+00:00,221.0,8.01,224.0,9.15,13.13,47.59359,-54.27349
2023-08-31 18:04:00+00:00,231.0,6.89,228.0,8.55,13.13,47.59359,-54.27349
2023-08-31 18:14:00+00:00,238.0,7.81,235.0,9.12,13.29,47.59359,-54.27349
2023-08-31 18:24:00+00:00,241.0,7.9,243.0,8.73,13.29,47.59359,-54.27349
2023-08-31 18:34:00+00:00,249.0,8.07,242.0,9.68,13.29,47.59359,-54.27349
2023-08-31 18:44:00+00:00,242.0,8.01,238.0,9.03,13.29,47.59359,-54.27349
2023-08-31 18:54:00+00:00,237.0,7.74,234.0,8.53,13.29,47.59359,-54.27349
2023-08-31 19:04:00+00:00,229.0,9.2,238.0,12.36,13.29,47.59359,-54.27349
2023-08-31 19:14:00+00:00,231.0,8.88,234.0,10.19,13.37,47.59359,-54.27349
2023-08-31 19:24:00+00:00,233.0,9.39,239.0,12.54,13.37,47.59359,-54.27349
2023-08-31 19:34:00+00:00,231.0,9.3,226.0,10.91,13.37,47.59359,-54.27349
2023-08-31 19:44:00+00:00,230.0,8.83,229.0,10.5,13.37,47.59359,-54.27349
2023-08-31 19:54:00+00:00,239.0,8.39,240.0,9.62,13.37,47.59359,-54.27349
2023-08-31 20:04:00+00:00,245.0,8.36,240.0,10.31,13.37,47.59359,-54.27349
2023-08-31 20:14:01+00:00,236.0,7.92,234.0,8.88,13.37,47.59359,-54.27349
2023-08-31 20:24:01+00:00,240.0,7.23,242.0,8.05,13.37,47.59359,-54.27349
2023-08-31 20:34:01+00:00,244.0,8.64,241.0,9.3,13.37,47.59359,-54.27349
2023-08-31 20:44:01+00:00,244.0,9.41,254.0,12.56,13.37,47.59359,-54.27349
2023-08-31 20:54:01+00:00,241.0,8.59,242.0,10.26,13.37,47.59359,-54.27349
2023-08-31 21:04:01+00:00,250.0,10.29,249.0,11.46,13.37,47.59359,-54.27349
2023-08-31 21:14:01+00:00,252.0,9.95,254.0,11.94,13.05,47.59359,-54.27349
2023-08-31 21:24:01+00:00,252.0,10.29,254.0,11.96,13.05,47.59359,-54.27349
2023-08-31 21:34:01+00:00,251.0,9.38,254.0,10.97,13.05,47.59359,-54.27349
2023-08-31 21:44:01+00:00,250.0,9.38,252.0,10.84,13.05,47.59359,-54.27349
2023-08-31 21:54:01+00:00,249.0,9.33,252.0,11.43,13.05,47.59359,-54.27349
2023-08-31 22:04:01+00:00,255.0,8.68,256.0,9.95,13.05,47.59359,-54.27349
2023-08-31 22:14:01+00:00,261.0,8.87,264.0,11.78,12.49,47.59359,-54.27349
2023-08-31 22:24:01+00:00,269.0,9.08,268.0,10.38,12.49,47.59359,-54.27349
2023-08-31 22:34:01+00:00,271.0,9.73,270.0,11.96,12.49,47.59359,-54.27349
2023-08-31 22:44:01+00:00,271.0,9.3,273.0,10.79,12.49,47.59359,-54.27349
2023-08-31 22:54:01+00:00,269.0,8.64,263.0,10.0,12.49,47.59359,-54.27349
2023-08-31 23:04:01+00:00,276.0,8.63,283.0,9.53,12.49,47.59359,-54.27349
2023-08-31 23:14:00+00:00,269.0,8.21,261.0,9.3,12.41,47.59359,-54.27349
2023-08-31 23:24:00+00:00,275.0,7.91,280.0,8.78,12.41,47.59359,-54.27349
2023-08-31 23:34:00+00:00,283.0,6.68,281.0,7.34,12.41,47.59359,-54.27349
2023-08-31 23:44:00+00:00,299.0,7.3,299.0,9.21,12.41,47.59359,-54.27349
2023-08-31 23:54:00+00:00,300.0,5.03,296.0,6.69,12.41,47.59359,-54.27349
